Year,Month,Day,Hour,Minute,Value (Times are PST for temperature in C)
2008,06,15,00,00,11.10
2008,06,15,00,01,11.10
2008,06,15,00,02,11.00
2008,06,15,00,03,11.00
2008,06,15,00,04,11.00
2008,06,15,00,05,11.00
2008,06,15,00,06,11.00
2008,06,15,00,07,11.00
2008,06,15,00,08,11.00
2008,06,15,00,09,11.00
2008,06,15,00,10,11.00
2008,06,15,00,11,11.00
2008,06,15,00,12,11.00
2008,06,15,00,13,11.00
2008,06,15,00,14,11.00
2008,06,15,00,15,11.00
2008,06,15,00,16,11.00
2008,06,15,00,17,11.00
2008,06,15,00,18,11.00
2008,06,15,00,19,11.00
2008,06,15,00,20,11.00
2008,06,15,00,21,11.00
2008,06,15,00,22,11.00
2008,06,15,00,23,11.00
2008,06,15,00,24,11.00
2008,06,15,00,25,11.00
2008,06,15,00,26,11.00
2008,06,15,00,27,11.00
2008,06,15,00,28,11.00
2008,06,15,00,29,10.90
2008,06,15,00,30,10.90
2008,06,15,00,31,10.90
2008,06,15,00,32,10.90
2008,06,15,00,33,10.90
2008,06,15,00,34,10.90
2008,06,15,00,35,10.90
2008,06,15,00,36,10.90
2008,06,15,00,37,10.90
2008,06,15,00,38,10.90
2008,06,15,00,39,11.00
2008,06,15,00,40,11.00
2008,06,15,00,41,11.00
2008,06,15,00,42,11.00
2008,06,15,00,43,11.00
2008,06,15,00,44,11.00
2008,06,15,00,45,10.90
2008,06,15,00,46,10.90
2008,06,15,00,47,10.90
2008,06,15,00,48,10.90
2008,06,15,00,49,10.90
2008,06,15,00,50,10.90
2008,06,15,00,51,10.90
2008,06,15,00,52,10.90
2008,06,15,00,53,10.90
2008,06,15,00,54,10.80
2008,06,15,00,55,10.80
2008,06,15,00,56,10.80
2008,06,15,00,57,10.80
2008,06,15,00,58,10.80
2008,06,15,00,59,10.80
2008,06,15,01,00,10.70
2008,06,15,01,01,10.70
2008,06,15,01,02,10.70
2008,06,15,01,03,10.70
2008,06,15,01,04,10.60
2008,06,15,01,05,10.60
2008,06,15,01,06,10.60
2008,06,15,01,07,10.50
2008,06,15,01,08,10.50
2008,06,15,01,09,10.50
2008,06,15,01,10,10.40
2008,06,15,01,11,10.40
2008,06,15,01,12,10.40
2008,06,15,01,13,10.40
2008,06,15,01,14,10.40
2008,06,15,01,15,10.40
2008,06,15,01,16,10.40
2008,06,15,01,17,10.40
2008,06,15,01,18,10.40
2008,06,15,01,19,10.40
2008,06,15,01,20,10.40
2008,06,15,01,21,10.40
2008,06,15,01,22,10.40
2008,06,15,01,23,10.40
2008,06,15,01,24,10.40
2008,06,15,01,25,10.40
2008,06,15,01,26,10.40
2008,06,15,01,27,10.40
2008,06,15,01,28,10.40
2008,06,15,01,29,10.40
2008,06,15,01,30,10.40
2008,06,15,01,31,10.40
2008,06,15,01,32,10.40
2008,06,15,01,33,10.40
2008,06,15,01,34,10.40
2008,06,15,01,35,10.40
2008,06,15,01,36,10.40
2008,06,15,01,37,10.40
2008,06,15,01,38,10.40
2008,06,15,01,39,10.40
2008,06,15,01,40,10.40
2008,06,15,01,41,10.40
2008,06,15,01,42,10.40
2008,06,15,01,43,10.30
2008,06,15,01,44,10.30
2008,06,15,01,45,10.30
2008,06,15,01,46,10.30
2008,06,15,01,47,10.30
2008,06,15,01,48,10.30
2008,06,15,01,49,10.30
2008,06,15,01,50,10.30
2008,06,15,01,51,10.30
2008,06,15,01,52,10.30
2008,06,15,01,53,10.30
2008,06,15,01,54,10.30
2008,06,15,01,55,10.30
2008,06,15,01,56,10.30
2008,06,15,01,57,10.30
2008,06,15,01,58,10.20
2008,06,15,01,59,10.20
2008,06,15,02,00,10.20
2008,06,15,02,01,10.20
2008,06,15,02,02,10.20
2008,06,15,02,03,10.20
2008,06,15,02,04,10.20
2008,06,15,02,05,10.20
2008,06,15,02,06,10.20
2008,06,15,02,07,10.20
2008,06,15,02,08,10.20
2008,06,15,02,09,10.20
2008,06,15,02,10,10.20
2008,06,15,02,11,10.20
2008,06,15,02,12,10.20
2008,06,15,02,13,10.20
2008,06,15,02,14,10.20
2008,06,15,02,15,10.10
2008,06,15,02,16,10.10
2008,06,15,02,17,10.10
2008,06,15,02,18,10.10
2008,06,15,02,19,10.10
2008,06,15,02,20,10.10
2008,06,15,02,21,10.10
2008,06,15,02,22,10.10
2008,06,15,02,23,10.10
2008,06,15,02,24,10.10
2008,06,15,02,25,10.10
2008,06,15,02,26,10.10
2008,06,15,02,27,10.10
2008,06,15,02,28,10.00
2008,06,15,02,29,10.00
2008,06,15,02,30,10.00
2008,06,15,02,31,10.00
2008,06,15,02,32,10.00
2008,06,15,02,33,10.00
2008,06,15,02,34,10.00
2008,06,15,02,35,9.90
2008,06,15,02,36,9.90
2008,06,15,02,37,9.90
2008,06,15,02,38,9.90
2008,06,15,02,39,9.90
2008,06,15,02,40,9.90
2008,06,15,02,41,9.90
2008,06,15,02,42,9.90
2008,06,15,02,43,9.90
2008,06,15,02,44,9.90
2008,06,15,02,45,9.90
2008,06,15,02,46,9.90
2008,06,15,02,47,9.90
2008,06,15,02,48,9.90
2008,06,15,02,49,9.90
2008,06,15,02,50,9.80
2008,06,15,02,51,9.80
2008,06,15,02,52,9.80
2008,06,15,02,53,9.80
2008,06,15,02,54,9.80
2008,06,15,02,55,9.80
2008,06,15,02,56,9.80
2008,06,15,02,57,9.80
2008,06,15,02,58,9.80
2008,06,15,02,59,9.80
2008,06,15,03,00,9.80
2008,06,15,03,01,9.80
2008,06,15,03,02,9.80
2008,06,15,03,03,9.80
2008,06,15,03,04,9.80
2008,06,15,03,05,9.80
2008,06,15,03,06,9.80
2008,06,15,03,07,9.70
2008,06,15,03,08,9.70
2008,06,15,03,09,9.70
2008,06,15,03,10,9.70
2008,06,15,03,11,9.70
2008,06,15,03,12,9.70
2008,06,15,03,13,9.70
2008,06,15,03,14,9.70
2008,06,15,03,15,9.70
2008,06,15,03,16,9.60
2008,06,15,03,17,9.60
2008,06,15,03,18,9.60
2008,06,15,03,19,9.60
2008,06,15,03,20,9.60
2008,06,15,03,21,9.60
2008,06,15,03,22,9.60
2008,06,15,03,23,9.60
2008,06,15,03,24,9.50
2008,06,15,03,25,9.50
2008,06,15,03,26,9.50
2008,06,15,03,27,9.50
2008,06,15,03,28,9.50
2008,06,15,03,29,9.50
2008,06,15,03,30,9.50
2008,06,15,03,31,9.40
2008,06,15,03,32,9.40
2008,06,15,03,33,9.40
2008,06,15,03,34,9.40
2008,06,15,03,35,9.30
2008,06,15,03,36,9.30
2008,06,15,03,37,9.30
2008,06,15,03,38,9.30
2008,06,15,03,39,9.20
2008,06,15,03,40,9.20
2008,06,15,03,41,9.20
2008,06,15,03,42,9.20
2008,06,15,03,43,9.20
2008,06,15,03,44,9.20
2008,06,15,03,45,9.20
2008,06,15,03,46,9.10
2008,06,15,03,47,9.10
2008,06,15,03,48,9.10
2008,06,15,03,49,9.10
2008,06,15,03,50,9.00
2008,06,15,03,51,9.00
2008,06,15,03,52,9.00
2008,06,15,03,53,8.90
2008,06,15,03,54,8.90
2008,06,15,03,55,8.90
2008,06,15,03,56,8.90
2008,06,15,03,57,8.90
2008,06,15,03,58,8.90
2008,06,15,03,59,8.90
2008,06,15,04,00,8.90
2008,06,15,04,01,8.80
2008,06,15,04,02,8.80
2008,06,15,04,03,8.80
2008,06,15,04,04,8.80
2008,06,15,04,05,8.80
2008,06,15,04,06,8.80
2008,06,15,04,07,8.80
2008,06,15,04,08,8.70
2008,06,15,04,09,8.70
2008,06,15,04,10,8.70
2008,06,15,04,11,8.70
2008,06,15,04,12,8.70
2008,06,15,04,13,8.70
2008,06,15,04,14,8.70
2008,06,15,04,15,8.70
2008,06,15,04,16,8.70
2008,06,15,04,17,8.60
2008,06,15,04,18,8.70
2008,06,15,04,19,8.70
2008,06,15,04,20,8.70
2008,06,15,04,21,8.70
2008,06,15,04,22,8.60
2008,06,15,04,23,8.60
2008,06,15,04,24,8.60
2008,06,15,04,25,8.60
2008,06,15,04,26,8.60
2008,06,15,04,27,8.60
2008,06,15,04,28,8.60
2008,06,15,04,29,8.60
2008,06,15,04,30,8.60
2008,06,15,04,31,8.70
2008,06,15,04,32,8.70
2008,06,15,04,33,8.70
2008,06,15,04,34,8.70
2008,06,15,04,35,8.70
2008,06,15,04,36,8.60
2008,06,15,04,37,8.60
2008,06,15,04,38,8.60
2008,06,15,04,39,8.60
2008,06,15,04,40,8.60
2008,06,15,04,41,8.60
2008,06,15,04,42,8.60
2008,06,15,04,43,8.60
2008,06,15,04,44,8.60
2008,06,15,04,45,8.60
2008,06,15,04,46,8.60
2008,06,15,04,47,8.60
2008,06,15,04,48,8.60
2008,06,15,04,49,8.60
2008,06,15,04,50,8.60
2008,06,15,04,51,8.60
2008,06,15,04,52,8.60
2008,06,15,04,53,8.60
2008,06,15,04,54,8.60
2008,06,15,04,55,8.50
2008,06,15,04,56,8.50
2008,06,15,04,57,8.50
2008,06,15,04,58,8.50
2008,06,15,04,59,8.50
2008,06,15,05,00,8.50
2008,06,15,05,01,8.50
2008,06,15,05,02,8.40
2008,06,15,05,03,8.40
2008,06,15,05,04,8.40
2008,06,15,05,05,8.40
2008,06,15,05,06,8.40
2008,06,15,05,07,8.30
2008,06,15,05,08,8.30
2008,06,15,05,09,8.30
2008,06,15,05,10,8.30
2008,06,15,05,11,8.30
2008,06,15,05,12,8.30
2008,06,15,05,13,8.30
2008,06,15,05,14,8.30
2008,06,15,05,15,8.30
2008,06,15,05,16,8.30
2008,06,15,05,17,8.30
2008,06,15,05,18,8.30
2008,06,15,05,19,8.30
2008,06,15,05,20,8.30
2008,06,15,05,21,8.30
2008,06,15,05,22,8.30
2008,06,15,05,23,8.30
2008,06,15,05,24,8.30
2008,06,15,05,25,8.30
2008,06,15,05,26,8.30
2008,06,15,05,27,8.30
2008,06,15,05,28,8.30
2008,06,15,05,29,8.30
2008,06,15,05,30,8.30
2008,06,15,05,31,8.30
2008,06,15,05,32,8.20
2008,06,15,05,33,8.20
2008,06,15,05,34,8.20
2008,06,15,05,35,8.20
2008,06,15,05,36,8.10
2008,06,15,05,37,8.10
2008,06,15,05,38,8.10
2008,06,15,05,39,8.10
2008,06,15,05,40,8.10
2008,06,15,05,41,8.10
2008,06,15,05,42,8.10
2008,06,15,05,43,8.10
2008,06,15,05,44,8.10
2008,06,15,05,45,8.10
2008,06,15,05,46,8.10
2008,06,15,05,47,8.00
2008,06,15,05,48,8.00
2008,06,15,05,49,8.10
2008,06,15,05,50,8.10
2008,06,15,05,51,8.10
2008,06,15,05,52,8.10
2008,06,15,05,53,8.20
2008,06,15,05,54,8.20
2008,06,15,05,55,8.20
2008,06,15,05,56,8.30
2008,06,15,05,57,8.30
2008,06,15,05,58,8.40
2008,06,15,05,59,8.40
2008,06,15,06,00,8.40
2008,06,15,06,01,8.50
2008,06,15,06,02,8.50
2008,06,15,06,03,8.60
2008,06,15,06,04,8.60
2008,06,15,06,05,8.70
2008,06,15,06,06,8.70
2008,06,15,06,07,8.70
2008,06,15,06,08,8.80
2008,06,15,06,09,8.80
2008,06,15,06,10,8.80
2008,06,15,06,11,8.80
2008,06,15,06,12,8.90
2008,06,15,06,13,8.90
2008,06,15,06,14,8.90
2008,06,15,06,15,9.00
2008,06,15,06,16,9.00
2008,06,15,06,17,9.00
2008,06,15,06,18,9.10
2008,06,15,06,19,9.10
2008,06,15,06,20,9.20
2008,06,15,06,21,9.20
2008,06,15,06,22,9.30
2008,06,15,06,23,9.30
2008,06,15,06,24,9.30
2008,06,15,06,25,9.40
2008,06,15,06,26,9.40
2008,06,15,06,27,9.50
2008,06,15,06,28,9.50
2008,06,15,06,29,9.60
2008,06,15,06,30,9.60
2008,06,15,06,31,9.70
2008,06,15,06,32,9.70
2008,06,15,06,33,9.80
2008,06,15,06,34,9.90
2008,06,15,06,35,9.90
2008,06,15,06,36,10.00
2008,06,15,06,37,10.00
2008,06,15,06,38,10.10
2008,06,15,06,39,10.20
2008,06,15,06,40,10.30
2008,06,15,06,41,10.30
2008,06,15,06,42,10.40
2008,06,15,06,43,10.60
2008,06,15,06,44,10.70
2008,06,15,06,45,10.80
2008,06,15,06,46,10.90
2008,06,15,06,47,11.00
2008,06,15,06,48,11.10
2008,06,15,06,49,11.20
2008,06,15,06,50,11.20
2008,06,15,06,51,11.30
2008,06,15,06,52,11.30
2008,06,15,06,53,11.30
2008,06,15,06,54,11.40
2008,06,15,06,55,11.40
2008,06,15,06,56,11.50
2008,06,15,06,57,11.60
2008,06,15,06,58,11.70
2008,06,15,06,59,11.70
2008,06,15,07,00,11.80
2008,06,15,07,01,11.90
2008,06,15,07,02,12.00
2008,06,15,07,03,12.10
2008,06,15,07,04,12.20
2008,06,15,07,05,12.30
2008,06,15,07,06,12.30
2008,06,15,07,07,12.40
2008,06,15,07,08,12.50
2008,06,15,07,09,12.50
2008,06,15,07,10,12.60
2008,06,15,07,11,12.60
2008,06,15,07,12,12.70
2008,06,15,07,13,12.80
2008,06,15,07,14,12.90
2008,06,15,07,15,13.00
2008,06,15,07,16,13.10
2008,06,15,07,17,13.10
2008,06,15,07,18,13.10
2008,06,15,07,19,13.10
2008,06,15,07,20,13.10
2008,06,15,07,21,13.10
2008,06,15,07,22,13.10
2008,06,15,07,23,13.10
2008,06,15,07,24,13.10
2008,06,15,07,25,13.10
2008,06,15,07,26,13.10
2008,06,15,07,27,13.10
2008,06,15,07,28,13.10
2008,06,15,07,29,13.10
2008,06,15,07,30,13.10
2008,06,15,07,31,13.10
2008,06,15,07,32,13.10
2008,06,15,07,33,13.10
2008,06,15,07,34,13.10
2008,06,15,07,35,13.10
2008,06,15,07,36,13.10
2008,06,15,07,37,13.10
2008,06,15,07,38,13.10
2008,06,15,07,39,13.10
2008,06,15,07,40,13.10
2008,06,15,07,41,13.20
2008,06,15,07,42,13.20
2008,06,15,07,43,13.20
2008,06,15,07,44,13.20
2008,06,15,07,45,13.30
2008,06,15,07,46,13.30
2008,06,15,07,47,13.30
2008,06,15,07,48,13.40
2008,06,15,07,49,13.50
2008,06,15,07,50,13.60
2008,06,15,07,51,13.60
2008,06,15,07,52,13.70
2008,06,15,07,53,13.70
2008,06,15,07,54,13.70
2008,06,15,07,55,13.70
2008,06,15,07,56,13.80
2008,06,15,07,57,13.80
2008,06,15,07,58,13.80
2008,06,15,07,59,13.80
2008,06,15,08,00,13.80
2008,06,15,08,01,13.80
2008,06,15,08,02,13.80
2008,06,15,08,03,13.90
2008,06,15,08,04,13.90
2008,06,15,08,05,13.90
2008,06,15,08,06,14.00
2008,06,15,08,07,14.00
2008,06,15,08,08,14.10
2008,06,15,08,09,14.10
2008,06,15,08,10,14.20
2008,06,15,08,11,14.20
2008,06,15,08,12,14.10
2008,06,15,08,13,14.10
2008,06,15,08,14,14.20
2008,06,15,08,15,14.20
2008,06,15,08,16,14.20
2008,06,15,08,17,14.20
2008,06,15,08,18,14.20
2008,06,15,08,19,14.20
2008,06,15,08,20,14.30
2008,06,15,08,21,14.30
2008,06,15,08,22,14.40
2008,06,15,08,23,14.50
2008,06,15,08,24,14.60
2008,06,15,08,25,14.60
2008,06,15,08,26,14.80
2008,06,15,08,27,14.80
2008,06,15,08,28,14.80
2008,06,15,08,29,14.90
2008,06,15,08,30,14.90
2008,06,15,08,31,14.90
2008,06,15,08,32,15.00
2008,06,15,08,33,15.00
2008,06,15,08,34,15.00
2008,06,15,08,35,15.00
2008,06,15,08,36,15.00
2008,06,15,08,37,15.00
2008,06,15,08,38,15.00
2008,06,15,08,39,15.10
2008,06,15,08,40,15.00
2008,06,15,08,41,15.00
2008,06,15,08,42,15.00
2008,06,15,08,43,15.00
2008,06,15,08,44,15.00
2008,06,15,08,45,15.00
2008,06,15,08,46,15.00
2008,06,15,08,47,15.00
2008,06,15,08,48,14.90
2008,06,15,08,49,14.80
2008,06,15,08,50,14.80
2008,06,15,08,51,14.80
2008,06,15,08,52,14.80
2008,06,15,08,53,14.80
2008,06,15,08,54,14.90
2008,06,15,08,55,15.00
2008,06,15,08,56,15.00
2008,06,15,08,57,15.00
2008,06,15,08,58,15.00
2008,06,15,08,59,15.00
2008,06,15,09,00,15.10
2008,06,15,09,01,15.20
2008,06,15,09,02,15.30
2008,06,15,09,03,15.30
2008,06,15,09,04,15.40
2008,06,15,09,05,15.40
2008,06,15,09,06,15.40
2008,06,15,09,07,15.40
2008,06,15,09,08,15.30
2008,06,15,09,09,15.30
2008,06,15,09,10,15.30
2008,06,15,09,11,15.20
2008,06,15,09,12,15.20
2008,06,15,09,13,15.20
2008,06,15,09,14,15.20
2008,06,15,09,15,15.20
2008,06,15,09,16,15.20
2008,06,15,09,17,15.10
2008,06,15,09,18,15.00
2008,06,15,09,19,15.00
2008,06,15,09,20,15.00
2008,06,15,09,21,15.00
2008,06,15,09,22,14.90
2008,06,15,09,23,14.80
2008,06,15,09,24,14.70
2008,06,15,09,25,14.80
2008,06,15,09,26,14.80
2008,06,15,09,27,14.80
2008,06,15,09,28,14.90
2008,06,15,09,29,15.00
2008,06,15,09,30,15.00
2008,06,15,09,31,15.00
2008,06,15,09,32,15.00
2008,06,15,09,33,15.00
2008,06,15,09,34,15.00
2008,06,15,09,35,15.00
2008,06,15,09,36,15.00
2008,06,15,09,37,15.00
2008,06,15,09,38,15.00
2008,06,15,09,39,15.00
2008,06,15,09,40,15.00
2008,06,15,09,41,15.00
2008,06,15,09,42,15.10
2008,06,15,09,43,15.20
2008,06,15,09,44,15.20
2008,06,15,09,45,15.30
2008,06,15,09,46,15.30
2008,06,15,09,47,15.30
2008,06,15,09,48,15.40
2008,06,15,09,49,15.50
2008,06,15,09,50,15.50
2008,06,15,09,51,15.60
2008,06,15,09,52,15.60
2008,06,15,09,53,15.60
2008,06,15,09,54,15.60
2008,06,15,09,55,15.50
2008,06,15,09,56,15.50
2008,06,15,09,57,15.50
2008,06,15,09,58,15.40
2008,06,15,09,59,15.40
2008,06,15,10,00,15.40
2008,06,15,10,01,15.40
2008,06,15,10,02,15.30
2008,06,15,10,03,15.30
2008,06,15,10,04,15.30
2008,06,15,10,05,15.20
2008,06,15,10,06,15.20
2008,06,15,10,07,15.20
2008,06,15,10,08,15.20
2008,06,15,10,09,15.20
2008,06,15,10,10,15.30
2008,06,15,10,11,15.30
2008,06,15,10,12,15.30
2008,06,15,10,13,15.30
2008,06,15,10,14,15.30
2008,06,15,10,15,15.30
2008,06,15,10,16,15.40
2008,06,15,10,17,15.40
2008,06,15,10,18,15.30
2008,06,15,10,19,15.30
2008,06,15,10,20,15.30
2008,06,15,10,21,15.30
2008,06,15,10,22,15.30
2008,06,15,10,23,15.40
2008,06,15,10,24,15.30
2008,06,15,10,25,15.40
2008,06,15,10,26,15.30
2008,06,15,10,27,15.30
2008,06,15,10,28,15.20
2008,06,15,10,29,15.10
2008,06,15,10,30,15.20
2008,06,15,10,31,15.20
2008,06,15,10,32,15.20
2008,06,15,10,33,15.30
2008,06,15,10,34,15.40
2008,06,15,10,35,15.50
2008,06,15,10,36,15.50
2008,06,15,10,37,15.50
2008,06,15,10,38,15.50
2008,06,15,10,39,15.40
2008,06,15,10,40,15.50
2008,06,15,10,41,15.50
2008,06,15,10,42,15.50
2008,06,15,10,43,15.50
2008,06,15,10,44,15.50
2008,06,15,10,45,15.40
2008,06,15,10,46,15.40
2008,06,15,10,47,15.40
2008,06,15,10,48,15.40
2008,06,15,10,49,15.50
2008,06,15,10,50,15.60
2008,06,15,10,51,15.60
2008,06,15,10,52,15.60
2008,06,15,10,53,15.50
2008,06,15,10,54,15.50
2008,06,15,10,55,15.60
2008,06,15,10,56,15.60
2008,06,15,10,57,15.60
2008,06,15,10,58,15.60
2008,06,15,10,59,15.70
2008,06,15,11,00,15.60
2008,06,15,11,01,15.50
2008,06,15,11,02,15.50
2008,06,15,11,03,15.50
2008,06,15,11,04,15.50
2008,06,15,11,05,15.50
2008,06,15,11,06,15.50
2008,06,15,11,07,15.40
2008,06,15,11,08,15.30
2008,06,15,11,09,15.20
2008,06,15,11,10,15.20
2008,06,15,11,11,15.30
2008,06,15,11,12,15.30
2008,06,15,11,13,15.40
2008,06,15,11,14,15.50
2008,06,15,11,15,15.60
2008,06,15,11,16,15.70
2008,06,15,11,17,15.80
2008,06,15,11,18,15.80
2008,06,15,11,19,15.80
2008,06,15,11,20,15.70
2008,06,15,11,21,15.70
2008,06,15,11,22,15.70
2008,06,15,11,23,15.80
2008,06,15,11,24,15.70
2008,06,15,11,25,15.70
2008,06,15,11,26,15.80
2008,06,15,11,27,15.80
2008,06,15,11,28,15.80
2008,06,15,11,29,15.90
2008,06,15,11,30,15.90
2008,06,15,11,31,16.00
2008,06,15,11,32,16.00
2008,06,15,11,33,16.00
2008,06,15,11,34,16.00
2008,06,15,11,35,16.00
2008,06,15,11,36,15.90
2008,06,15,11,37,15.80
2008,06,15,11,38,15.80
2008,06,15,11,39,15.80
2008,06,15,11,40,15.80
2008,06,15,11,41,15.80
2008,06,15,11,42,15.80
2008,06,15,11,43,15.80
2008,06,15,11,44,15.70
2008,06,15,11,45,15.70
2008,06,15,11,46,15.70
2008,06,15,11,47,15.70
2008,06,15,11,48,15.80
2008,06,15,11,49,15.80
2008,06,15,11,50,15.90
2008,06,15,11,51,16.00
2008,06,15,11,52,16.00
2008,06,15,11,53,16.00
2008,06,15,11,54,16.10
2008,06,15,11,55,16.10
2008,06,15,11,56,16.10
2008,06,15,11,57,16.20
2008,06,15,11,58,16.20
2008,06,15,11,59,16.20
2008,06,15,12,00,16.20
2008,06,15,12,01,16.10
2008,06,15,12,02,15.90
2008,06,15,12,03,15.90
2008,06,15,12,04,15.70
2008,06,15,12,05,15.60
2008,06,15,12,06,15.60
2008,06,15,12,07,15.60
2008,06,15,12,08,15.60
2008,06,15,12,09,15.70
2008,06,15,12,10,15.70
2008,06,15,12,11,15.80
2008,06,15,12,12,15.80
2008,06,15,12,13,15.80
2008,06,15,12,14,15.90
2008,06,15,12,15,15.90
2008,06,15,12,16,16.00
2008,06,15,12,17,16.00
2008,06,15,12,18,16.10
2008,06,15,12,19,16.10
2008,06,15,12,20,16.10
2008,06,15,12,21,16.10
2008,06,15,12,22,16.10
2008,06,15,12,23,16.00
2008,06,15,12,24,15.90
2008,06,15,12,25,15.80
2008,06,15,12,26,15.80
2008,06,15,12,27,15.80
2008,06,15,12,28,15.80
2008,06,15,12,29,15.90
2008,06,15,12,30,15.90
2008,06,15,12,31,16.00
2008,06,15,12,32,16.00
2008,06,15,12,33,16.00
2008,06,15,12,34,16.10
2008,06,15,12,35,16.10
2008,06,15,12,36,16.20
2008,06,15,12,37,16.20
2008,06,15,12,38,16.20
2008,06,15,12,39,16.20
2008,06,15,12,40,16.20
2008,06,15,12,41,16.30
2008,06,15,12,42,16.30
2008,06,15,12,43,16.30
2008,06,15,12,44,16.30
2008,06,15,12,45,16.30
2008,06,15,12,46,16.30
2008,06,15,12,47,16.40
2008,06,15,12,48,16.50
2008,06,15,12,49,16.50
2008,06,15,12,50,16.60
2008,06,15,12,51,16.60
2008,06,15,12,52,16.70
2008,06,15,12,53,16.70
2008,06,15,12,54,16.80
2008,06,15,12,55,16.80
2008,06,15,12,56,16.80
2008,06,15,12,57,16.80
2008,06,15,12,58,16.80
2008,06,15,12,59,16.70
2008,06,15,13,00,16.60
2008,06,15,13,01,16.50
2008,06,15,13,02,16.50
2008,06,15,13,03,16.40
2008,06,15,13,04,16.50
2008,06,15,13,05,16.60
2008,06,15,13,06,16.70
2008,06,15,13,07,16.70
2008,06,15,13,08,16.70
2008,06,15,13,09,16.60
2008,06,15,13,10,16.60
2008,06,15,13,11,16.60
2008,06,15,13,12,16.60
2008,06,15,13,13,16.70
2008,06,15,13,14,16.80
2008,06,15,13,15,16.90
2008,06,15,13,16,17.10
2008,06,15,13,17,17.10
2008,06,15,13,18,17.10
2008,06,15,13,19,17.00
2008,06,15,13,20,16.90
2008,06,15,13,21,16.80
2008,06,15,13,22,16.80
2008,06,15,13,23,16.80
2008,06,15,13,24,16.80
2008,06,15,13,25,16.80
2008,06,15,13,26,16.80
2008,06,15,13,27,16.80
2008,06,15,13,28,16.80
2008,06,15,13,29,16.70
2008,06,15,13,30,16.70
2008,06,15,13,31,16.80
2008,06,15,13,32,16.80
2008,06,15,13,33,16.80
2008,06,15,13,34,16.90
2008,06,15,13,35,16.90
2008,06,15,13,36,16.90
2008,06,15,13,37,16.80
2008,06,15,13,38,16.70
2008,06,15,13,39,16.80
2008,06,15,13,40,16.80
2008,06,15,13,41,16.80
2008,06,15,13,42,16.90
2008,06,15,13,43,16.90
2008,06,15,13,44,16.90
2008,06,15,13,45,16.90
2008,06,15,13,46,16.90
2008,06,15,13,47,16.80
2008,06,15,13,48,16.70
2008,06,15,13,49,16.60
2008,06,15,13,50,16.50
2008,06,15,13,51,16.50
2008,06,15,13,52,16.50
2008,06,15,13,53,16.50
2008,06,15,13,54,16.60
2008,06,15,13,55,16.60
2008,06,15,13,56,16.70
2008,06,15,13,57,16.80
2008,06,15,13,58,16.80
2008,06,15,13,59,16.90
2008,06,15,14,00,17.00
2008,06,15,14,01,17.10
2008,06,15,14,02,17.10
2008,06,15,14,03,17.20
2008,06,15,14,04,17.10
2008,06,15,14,05,17.00
2008,06,15,14,06,17.00
2008,06,15,14,07,17.10
2008,06,15,14,08,17.10
2008,06,15,14,09,17.10
2008,06,15,14,10,17.10
2008,06,15,14,11,17.10
2008,06,15,14,12,17.10
2008,06,15,14,13,17.20
2008,06,15,14,14,17.30
2008,06,15,14,15,17.30
2008,06,15,14,16,17.30
2008,06,15,14,17,17.30
2008,06,15,14,18,17.40
2008,06,15,14,19,17.40
2008,06,15,14,20,17.50
2008,06,15,14,21,17.50
2008,06,15,14,22,17.40
2008,06,15,14,23,17.40
2008,06,15,14,24,17.40
2008,06,15,14,25,17.30
2008,06,15,14,26,17.30
2008,06,15,14,27,17.20
2008,06,15,14,28,17.20
2008,06,15,14,29,17.10
2008,06,15,14,30,17.10
2008,06,15,14,31,17.10
2008,06,15,14,32,17.10
2008,06,15,14,33,17.20
2008,06,15,14,34,17.20
2008,06,15,14,35,17.30
2008,06,15,14,36,17.30
2008,06,15,14,37,17.30
2008,06,15,14,38,17.20
2008,06,15,14,39,17.20
2008,06,15,14,40,17.20
2008,06,15,14,41,17.20
2008,06,15,14,42,17.00
2008,06,15,14,43,17.00
2008,06,15,14,44,17.10
2008,06,15,14,45,17.20
2008,06,15,14,46,17.30
2008,06,15,14,47,17.40
2008,06,15,14,48,17.40
2008,06,15,14,49,17.40
2008,06,15,14,50,17.40
2008,06,15,14,51,17.30
2008,06,15,14,52,17.20
2008,06,15,14,53,17.20
2008,06,15,14,54,17.10
2008,06,15,14,55,17.00
2008,06,15,14,56,16.90
2008,06,15,14,57,16.90
2008,06,15,14,58,17.00
2008,06,15,14,59,17.00
2008,06,15,15,00,16.90
2008,06,15,15,01,16.90
2008,06,15,15,02,16.90
2008,06,15,15,03,16.80
2008,06,15,15,04,16.60
2008,06,15,15,05,16.60
2008,06,15,15,06,16.60
2008,06,15,15,07,16.60
2008,06,15,15,08,16.70
2008,06,15,15,09,16.80
2008,06,15,15,10,16.90
2008,06,15,15,11,17.00
2008,06,15,15,12,17.00
2008,06,15,15,13,16.80
2008,06,15,15,14,16.80
2008,06,15,15,15,16.70
2008,06,15,15,16,16.70
2008,06,15,15,17,16.70
2008,06,15,15,18,16.70
2008,06,15,15,19,16.70
2008,06,15,15,20,16.60
2008,06,15,15,21,16.50
2008,06,15,15,22,16.40
2008,06,15,15,23,16.30
2008,06,15,15,24,16.20
2008,06,15,15,25,16.10
2008,06,15,15,26,16.00
2008,06,15,15,27,15.90
2008,06,15,15,28,15.80
2008,06,15,15,29,15.70
2008,06,15,15,30,15.70
2008,06,15,15,31,15.70
2008,06,15,15,32,15.70
2008,06,15,15,33,15.80
2008,06,15,15,34,15.80
2008,06,15,15,35,15.90
2008,06,15,15,36,16.00
2008,06,15,15,37,16.00
2008,06,15,15,38,16.00
2008,06,15,15,39,15.90
2008,06,15,15,40,15.90
2008,06,15,15,41,16.00
2008,06,15,15,42,16.00
2008,06,15,15,43,16.10
2008,06,15,15,44,16.10
2008,06,15,15,45,16.10
2008,06,15,15,46,16.10
2008,06,15,15,47,16.00
2008,06,15,15,48,16.00
2008,06,15,15,49,15.90
2008,06,15,15,50,16.00
2008,06,15,15,51,16.00
2008,06,15,15,52,15.90
2008,06,15,15,53,15.90
2008,06,15,15,54,15.90
2008,06,15,15,55,16.00
2008,06,15,15,56,16.10
2008,06,15,15,57,16.30
2008,06,15,15,58,16.30
2008,06,15,15,59,16.40
2008,06,15,16,00,16.40
2008,06,15,16,01,16.50
2008,06,15,16,02,16.50
2008,06,15,16,03,16.70
2008,06,15,16,04,16.80
2008,06,15,16,05,16.70
2008,06,15,16,06,16.80
2008,06,15,16,07,16.80
2008,06,15,16,08,16.80
2008,06,15,16,09,16.90
2008,06,15,16,10,16.90
2008,06,15,16,11,17.00
2008,06,15,16,12,17.10
2008,06,15,16,13,17.20
2008,06,15,16,14,17.30
2008,06,15,16,15,17.50
2008,06,15,16,16,17.70
2008,06,15,16,17,17.90
2008,06,15,16,18,18.00
2008,06,15,16,19,18.10
2008,06,15,16,20,18.00
2008,06,15,16,21,18.10
2008,06,15,16,22,18.10
2008,06,15,16,23,18.00
2008,06,15,16,24,17.90
2008,06,15,16,25,17.80
2008,06,15,16,26,17.70
2008,06,15,16,27,17.70
2008,06,15,16,28,17.50
2008,06,15,16,29,17.40
2008,06,15,16,30,17.30
2008,06,15,16,31,17.20
2008,06,15,16,32,17.20
2008,06,15,16,33,17.00
2008,06,15,16,34,16.90
2008,06,15,16,35,16.70
2008,06,15,16,36,16.60
2008,06,15,16,37,16.50
2008,06,15,16,38,16.60
2008,06,15,16,39,16.60
2008,06,15,16,40,16.70
2008,06,15,16,41,16.80
2008,06,15,16,42,16.80
2008,06,15,16,43,16.80
2008,06,15,16,44,16.90
2008,06,15,16,45,16.90
2008,06,15,16,46,17.00
2008,06,15,16,47,17.10
2008,06,15,16,48,17.20
2008,06,15,16,49,17.30
2008,06,15,16,50,17.40
2008,06,15,16,51,17.50
2008,06,15,16,52,17.50
2008,06,15,16,53,17.40
2008,06,15,16,54,17.50
2008,06,15,16,55,17.40
2008,06,15,16,56,17.30
2008,06,15,16,57,17.20
2008,06,15,16,58,17.20
2008,06,15,16,59,17.20
2008,06,15,17,00,17.10
2008,06,15,17,01,17.10
2008,06,15,17,02,17.00
2008,06,15,17,03,17.00
2008,06,15,17,04,16.90
2008,06,15,17,05,16.90
2008,06,15,17,06,16.80
2008,06,15,17,07,16.80
2008,06,15,17,08,16.80
2008,06,15,17,09,16.80
2008,06,15,17,10,16.80
2008,06,15,17,11,16.70
2008,06,15,17,12,16.80
2008,06,15,17,13,16.80
2008,06,15,17,14,16.90
2008,06,15,17,15,17.00
2008,06,15,17,16,17.10
2008,06,15,17,17,17.10
2008,06,15,17,18,17.10
2008,06,15,17,19,17.20
2008,06,15,17,20,17.10
2008,06,15,17,21,17.00
2008,06,15,17,22,17.00
2008,06,15,17,23,16.90
2008,06,15,17,24,16.80
2008,06,15,17,25,16.70
2008,06,15,17,26,16.70
2008,06,15,17,27,16.60
2008,06,15,17,28,16.70
2008,06,15,17,29,16.70